Regional Weather Roundup
Issued by NWS Wakefield, VA

Home | Current Version | Previous Version | Graphics & Text | Print | Product List | Glossary On
Versions: 1 2 3 4 5 6 7 8 9 10 11 12 13 14 15 16 17 18 19 20 21 22 23 24 25 26 27 28 29 30 31 32 33 34 35 36 37 38 39 40 41 42 43 44 45 46 47 48 49 50
000
ASUS41 KAKQ 271014
RWRAKQ

REGIONAL WEATHER ROUNDUP
NATIONAL WEATHER SERVICE WAKEFIELD VA
600 AM EDT MON APR 27 2015

Note: "fair" indicates few or no clouds below 12,000 feet with no
significant weather and/or obstructions to visibility. * = Denotes
station may not report precipitation (e.g., rain,snow,etc.),
thunder or fog.

VAZ042-051-052>054-056-271100-
NORTHERN VIRGINIA

CITY           SKY/WX    TMP DP  RH WIND       PRES   REMARKS
WASH NATIONAL  PTCLDY    49  32  52 NW9       29.76S
DULLES         PTCLDY    40  32  73 CALM      29.76S
FORT BELVOIR   CLEAR     40  34  77 NW2       29.76R
QUANTICO       CLEAR     43  34  70 NW9       29.77S
FREDERICKSBRG* CLEAR     39  37  89 CALM      29.75S
STAFFORD*      CLEAR     38  32  77 NW7       29.80S
WARRENTON      CLEAR     35  33  94 CALM      29.76S
CULPEPER*      CLEAR     37  36  93 CALM      29.77S
MANASSAS*      CLEAR     36  36 100 CALM      29.77S
LEESBURG*      CLOUDY    43  36  75 NW5       29.77S
WINCHESTER     PTCLDY    41  28  60 CALM      29.77S
FRONT ROYAL*   PTSUNNY   37  32  81 CALM      29.77S
LURAY*         FAIR      37  34  87 S3        29.78R
$$

VAZ048-049-060>072-079>083-271100-
CENTRAL AND SOUTH CENTRAL VIRGINIA

CITY           SKY/WX    TMP DP  RH WIND       PRES   REMARKS
RICHMOND       CLEAR     44  40  85 NW5       29.73S
CHESTERFIELD*  FAIR      39  28  65 NW3       29.75R
PETERSBURG*    CLEAR     38  38  97 CALM      29.74S
HANOVER        CLEAR     42  39  89 VRB3      29.76R
TAPPAHANNOCK*  CLEAR     38  35  89 CALM      29.74S
QUINTON*       FAIR      38  38  97 CALM      29.73S
CHARLOTTSVILLE CLEAR     41  32  70 CALM      29.76S
GORDONSVILLE*  FAIR      44  31  60 CALM      29.76S
ORANGE*        CLEAR     45  32  61 CALM      29.78S
LOUISA*        CLEAR     45  34  65 N5        29.75S
BUMPASS*       FAIR      45  35  66 NW3       29.75S
FARMVILLE*     PTCLDY    40  40 100 CALM      29.76R
CREWE*         FAIR      41  40  94 NW7       29.74S
FORT PICKETT*  FAIR      42  41  98 NW8       29.74R
CHASE CITY*    FAIR      42  42 100 CALM      29.75S
CLARKSVILLE*   FAIR      37  37 100 CALM      29.75R
SOUTH HILL*    CLEAR     42  41  95 SW5       29.79S
LAWRENCEVILLE* FAIR      39  39 100 CALM      29.73S
EMPORIA*       CLEAR     37  37 100 CALM      29.75S FOG
$$

VAZ088>098-271100-
SOUTHEAST VIRGINIA

CITY           SKY/WX    TMP DP  RH WIND       PRES   REMARKS
NORFOLK        CLEAR     43  39  86 SW6       29.72S
VIRGINIA BEACH CLEAR     43  39  86 CALM      29.72S
NORFOLK NAVAL  CLEAR     50  42  74 S3        29.74R
WEST POINT*    CLEAR     39  37  92 CALM      29.74S
SALUDA*        FAIR      42  39  91 NW5       29.72R
NEWPORT NEWS   CLEAR     43  39  86 N3        29.73S FOG
LANGLEY AFB    CLEAR     43  40  90 W3        29.71S
FORT EUSTIS    CLEAR     46  46 100 NW7       29.71R
WILLIAMSBURG*  CLEAR     43  43 100 CALM      29.74R
HR EXEC AP*    FAIR      36  32  87 CALM      29.75S
FRANKLIN*      CLEAR     37  37  98 CALM      29.74S
WAKEFIELD      CLEAR     38  36  92 CALM      29.73S
$$

VAZ020-022-025-037-045-271100-
WEST CENTRAL AND SOUTHWEST VIRGINIA

CITY           SKY/WX    TMP DP  RH WIND       PRES   REMARKS
STAUNTON*      CLEAR     33  32  94 CALM      29.79S
WAYNESBORO*    FAIR      34  34  98 SW3       29.77S
HOT SPRINGS VA CLEAR     34  28  81 N7        29.73S
LYNCHBURG      CLEAR     38  38 100 CALM      29.77S
DANVILLE       CLEAR     40  36  86 CALM      29.77R
SOUTH BOSTON*  FAIR      38  36  94 CALM      29.77R
MARTINSVILLE   CLOUDY    39  39 100 CALM      29.80S
ROANOKE        CLEAR     42  36  79 W6        29.80R
BLACKSBURG     CLEAR     34  34  98 CALM      29.82S
DUBLIN*        CLEAR     39  37  91 W3        29.82R
MARION*        MOCLDY    39  35  84 W5        29.84R
HILLSVILLE*    CLEAR     40  37  87 SW5       29.78S
RICHLANDS*     CLOUDY    38  35  88 CALM      29.83R
WISE*          PTCLDY    39  32  75 NW6       29.85R
ABINGDON*      CLEAR     41  38  87 CALM      29.83R
$$

MDZ021>025-VAZ099-100-271100-
SOUTHERN MARYLAND AND THE DELMARVA PENINSULA

CITY           SKY/WX    TMP DP  RH WIND       PRES   REMARKS
PATUXENT RIVER PTCLDY    48  37  65 N6        29.73R
BAY BRIDGE APT   N/A    N/A N/A N/A N5        29.74S
LEONARDTOWN    MOCLDY    43  36  75 CALM      29.75R
DOVER          CLOUDY    44  37  79 NW6       29.68S
GEORGETOWN     CLOUDY    38  36  92 CALM      29.72S
EASTON         PTCLDY    43  37  80 NE3       29.77R
CAMBRIDGE      CLEAR     41  37  87 CALM      29.73R
SALISBURY      CLEAR     36  33  89 CALM      29.72S
OCEAN CITY     CLEAR     36  34  92 N3        29.72S
WALLOPS ISLAND CLEAR     42  39  89 N3        29.72R
ACCOMACK*      CLEAR     41  36  81 W5        29.71S
$$

NCZ012>017-030>032-271100-
NORTH CENTRAL AND EASTERN NORTH CAROLINA

CITY           SKY/WX    TMP DP  RH WIND       PRES   REMARKS
ROANOKE RAPIDS FAIR      37  37 100 CALM      29.74S
RALEIGH        PTCLDY    40  39  97 CALM      29.77R
ELIZABETH CITY CLEAR     43  39  86 CALM      29.74S
AHOSKIE*         N/A     38  38  98 CALM      29.75S FOG
EDENTON*       CLEAR     42  41  98 CALM      29.74S
CURRITUCK*     CLEAR     43  40  88 CALM      29.74S
KILL DEVIL HLS CLEAR     49  40  72 CALM      29.72R
MANTEO         CLEAR     41  38  91 N3        29.73R
CAPE HATTERAS  PTCLDY    51  37  58 VRB5      29.71R
TARBORO*       FOG       40  39  98 CALM      29.77R VSB 1/4
GOLDSBORO      CLEAR     45  44  95 CALM      29.74R
WASHINGTON     CLEAR     43  43  98 CALM      29.75R
GREENVILLE     CLEAR     41  41 100 CALM      29.78S FOG
NEW BERN       CLEAR     47  45  93 NW5       29.75R
WILMINGTON     CLOUDY    49  48  97 CALM      29.74S
$$

VAZ048-271100-
ELSEWHERE

CITY           SKY/WX    TMP DP  RH WIND       PRES   REMARKS
HARRISBURG PA  CLOUDY    45  33  63 NW8       29.73S
BALTIMORE      MOCLDY    43  33  68 CALM      29.74S
ANNAPOLIS      MOCLDY    47  37  68 CALM      29.74R
ANDREWS AFB    PTCLDY    42  31  64 N3        29.74R
PHILADELPHIA   CLOUDY    49  29  46 W9        29.72F
HENDERSON NC   CLEAR     40  38  96 W5        29.76R
GREENSBORO     CLEAR     43  42  97 CALM      29.77R
ROCKY MOUNT    FOG       41  40  96 CALM      29.76R VSB 3/4
$$

VAZ100-271100-
MARINE

STATION/POSITION TIME  TEMP    WIND        PRES    WAVE   SWELL
                       AIR SEA DIR/SP/G            HT/PER HT/PER
                 (UTC) (F)     (DEG/KT/KT) (MB)    (FT/S) (FT/S)
BRANDYWINE LGT   0900   51 51   10/ 17/ 18 1006.0F
CAPE MAY NJ      0900   50 55  350/  6/ 12 1005.6F
LEWES DE         0900   45 51  280/  4/  4 1005.9F
15NM E FENWICK I 0950   48 47              1005.8R   2/ 8
OCEAN-CITY-INLET 0900   44 51   10/  5/  6 1005.9R
WACHAPREAGUE VA  0900   45 55  260/  3/  5 1005.9F
THOMAS POINT MD  1000   50 53  330/  8/  9 1007.7R
GOOSES REEF MD   1000   52 53   30/ 10/ 12   N/A     1/ 2
COVE POINT MD    0900   50      40/  8/  9 1007.3R
SOLOMONS ISLAND  0900      54                N/A
BISHOPS HEAD MD  0900   50 56   10/  5/  7 1005.6S
PINEY POINT MD   0900           50/ 10/ 12   N/A
CAMBRIDGE MD     0900   47 58   30/  4/  6 1006.3S
LEWISETTA VA     0900   51 58              1006.0R
RAPPAHANNOCK LGT 0900          230/ 10/ 12 1006.2F
YORK RVR RNG VA  0900   52     260/  7/  8 1005.5F
YORKTOWN VA      0900   48 59  170/  2/  4 1005.9F
JAMESTOWN VA     1000   48 62  360/  2/  6 1005.7R
DOMINION TERM VA 0900   52     270/  8/  9 1006.3F
KIPTOPEKE VA     0900      60  260/  8/ 10   N/A
CHES BAY BRIDGE  0900   51 54  220/ 10/ 11 1005.9F
CAPE HENRY VA    0900   47     230/  7/  8 1005.1F
CHESAPEAKE LGHT  0900   50     270/ 10/ 11 1007.0S
WILLOUBY STN VA  0900   52     230/  8/  9 1006.8F
S CRANEY ISL VA  0900          230/  3/  5 1006.3F
CAPE HENRY BUOY  0928      51                N/A     3/ 8
OFFSHORE WE BUOY 0911      50                N/A     3/ 7   3/ 7
64NM E OF VA BCH 0950   54 55  320/  8/ 10 1005.7R   4/ 7   3/ 7
DUCK PIER NC     0900   51 54  300/  4/  5 1005.4S
44056 DUCK FRF   0911      54                N/A     3/ 6   2/11
OREGON INLET NC  0900   47 54  320/  5/  6 1006.2R
HATTERAS NC      0900   57 60  360/ 12/ 15 1005.1F
DIAMOND SHLS NC  0950   59 75   10/ 17/ 21 1005.1S   6/ 8   3/ 8
CAPE LOOKOUT NC  1000   53     340/ 13/ 15 1006.1R
$$


USA.gov is the U.S. government's official web portal to all federal, state and local government web resources and services.